FW9290 Weather Reports


Display with metric or nautical units.
time (UTC)temp
F
wind
direction
speed
MPH
gust
MPH
rain 1hr
in
rain 24hr
in
rain mn
in
humidity
%
barometer
mb
20260506181542 85 0 0.0 1.0 0.00 0.00 0.00 80 1010.4
20260506181023 85 0 0.0 3.0 0.00 0.00 0.00 80 1010.6
20260506180528 85 0 0.0 3.0 0.00 0.00 0.00 80 1010.7
20260506180046 85 264 0.0 3.0 0.00 0.00 0.00 81 1010.8
20260506175519 85 290 0.0 1.0 0.00 0.00 0.00 81 1010.9
20260506175020 85 0 0.0 2.0 0.00 0.00 0.00 82 1010.8
20260506174535 84 0 0.0 2.0 0.00 0.00 0.00 83 1010.9
20260506174019 83 0 0.0 1.0 0.00 0.00 0.00 86 1011.0
20260506173519 83 240 0.0 1.0 0.00 0.00 0.00 85 1011.1
20260506173037 82 0 0.0 1.0 0.00 0.00 0.00 86 1011.2
20260506172518 82 0 0.0 1.0 0.00 0.00 0.00 86 1011.2
20260506172021 82 0 0.0 1.0 0.00 0.00 0.00 86 1011.2
20260506171549 82 255 0.0 1.0 0.00 0.00 0.00 87 1011.2
20260506171018 81 0 0.0 1.0 0.00 0.00 0.00 88 1011.3
20260506170522 81 0 0.0 1.0 0.00 0.00 0.00 89 1011.4
20260506170040 81 0 0.0 0.0 0.00 0.00 0.00 89 1011.5
20260506165521 80 236 0.0 0.0 0.00 0.00 0.00 89 1011.3
20260506165021 80 0 0.0 1.0 0.00 0.00 0.00 89 1011.4
20260506164537 80 0 0.0 1.0 0.00 0.00 0.00 89 1011.3
20260506164018 80 0 0.0 0.0 0.00 0.00 0.00 88 1011.4
20260506163519 80 0 0.0 0.0 0.00 0.00 0.00 88 1011.3
20260506163045 80 0 0.0 0.0 0.00 0.00 0.00 88 1011.2
20260506162518 80 0 0.0 1.0 0.00 0.00 0.00 88 1011.1
20260506162018 80 0 0.0 1.0 0.00 0.00 0.00 89 1011.0
20260506161547 80 0 0.0 1.0 0.00 0.00 0.00 89 1011.1
20260506161021 80 0 0.0 1.0 0.00 0.00 0.00 90 1011.1
20260506160522 80 0 0.0 1.0 0.00 0.00 0.00 90 1011.0
20260506160034 79 0 0.0 1.0 0.00 0.00 0.00 90 1010.9
20260506155519 80 247 0.0 1.0 0.00 0.00 0.00 89 1010.9
20260506155019 80 0 0.0 1.0 0.00 0.00 0.00 89 1010.9
20260506154540 80 0 0.0 0.0 0.00 0.00 0.00 89 1010.9
20260506154021 80 0 0.0 1.0 0.00 0.00 0.00 89 1010.9
20260506153520 80 0 0.0 1.0 0.00 0.00 0.00 89 1010.9
20260506153038 80 0 0.0 1.0 0.00 0.00 0.00 88 1010.9
20260506152521 80 0 0.0 1.0 0.00 0.00 0.00 88 1010.7
20260506152019 80 0 0.0 1.0 0.00 0.00 0.00 88 1010.5
20260506151536 80 0 0.0 1.0 0.00 0.00 0.00 88 1010.4
20260506151018 80 0 0.0 1.0 0.00 0.00 0.00 88 1010.4
20260506150519 80 0 0.0 1.0 0.00 0.00 0.00 88 1010.4
20260506150035 80 0 0.0 1.0 0.00 0.00 0.00 88 1010.4
20260506145520 80 0 0.0 0.0 0.00 0.00 0.00 88 1010.3
20260506145019 80 0 0.0 1.0 0.00 0.00 0.00 89 1010.1
20260506144539 80 0 0.0 1.0 0.00 0.00 0.00 89 1010.1
20260506144019 80 0 0.0 2.0 0.00 0.00 0.00 88 1009.9
20260506143519 80 0 0.0 2.0 0.00 0.00 0.00 89 1009.9
20260506143038 80 0 0.0 0.0 0.00 0.00 0.00 89 1009.8
20260506142519 80 0 0.0 0.0 0.00 0.00 0.00 90 1009.8
20260506142018 79 0 0.0 0.0 0.00 0.00 0.00 90 1009.9
20260506141535 79 0 0.0 1.0 0.00 0.00 0.00 91 1009.8
20260506141019 79 0 0.0 1.0 0.00 0.00 0.00 91 1009.9
20260506140520 79 0 0.0 1.0 0.00 0.00 0.00 91 1010.0
20260506140043 79 0 0.0 3.0 0.00 0.00 0.00 92 1010.0
20260506135521 78 46 0.0 3.0 0.00 0.00 0.00 92 1010.0
20260506135027 78 0 0.0 1.0 0.00 0.00 0.00 93 1010.1
20260506134606 77 0 0.0 1.0 0.00 0.00 0.00 94 1010.0
20260506134018 77 0 0.0 2.0 0.00 0.00 0.00 94 1010.0
20260506133519 77 0 0.0 2.0 0.00 0.00 0.00 94 1010.1
20260506133039 77 0 0.0 2.0 0.00 0.00 0.00 94 1010.2
20260506132519 76 0 0.0 2.0 0.00 0.00 0.00 94 1010.2
20260506132019 76 0 0.0 0.0 0.00 0.00 0.00 95 1010.2
20260506131543 76 0 0.0 0.0 0.00 0.00 0.00 95 1010.2
20260506131019 76 0 0.0 0.0 0.00 0.00 0.00 95 1010.2
20260506130523 76 0 0.0 0.0 0.00 0.00 0.00 95 1010.1
20260506130036 76 0 0.0 0.0 0.00 0.00 0.00 95 1010.2
20260506125518 76 0 0.0 0.0 0.00 0.00 0.00 95 1010.1
20260506125018 76 0 0.0 0.0 0.00 0.00 0.00 95 1010.2
20260506124533 76 0 0.0 0.0 0.00 0.00 0.00 95 1010.1
20260506124018 75 0 0.0 1.0 0.00 0.00 0.00 95 1010.2
20260506123519 75 0 0.0 1.0 0.00 0.00 0.00 95 1010.1
20260506123042 75 79 0.0 1.0 0.00 0.00 0.00 95 1010.0
20260506122519 75 0 0.0 1.0 0.00 0.00 0.00 95 1009.9
20260506122018 75 0 0.0 1.0 0.00 0.00 0.00 95 1009.9
20260506121539 75 0 0.0 1.0 0.00 0.00 0.00 95 1009.9
20260506121018 75 0 0.0 0.0 0.00 0.00 0.00 95 1009.8
20260506120519 75 0 0.0 0.0 0.00 0.00 0.00 95 1009.7
20260506120039 75 0 0.0 0.0 0.00 0.00 0.00 95 1009.7
20260506115518 75 0 0.0 0.0 0.00 0.00 0.00 95 1009.6
20260506115019 75 0 0.0 0.0 0.00 0.00 0.00 95 1009.4
20260506114543 75 0 0.0 0.0 0.00 0.00 0.00 95 1009.4
20260506114018 75 0 0.0 1.0 0.00 0.00 0.00 95 1009.4
20260506113519 75 0 0.0 1.0 0.00 0.00 0.00 95 1009.3
20260506113038 74 0 0.0 0.0 0.00 0.00 0.00 95 1009.2
20260506112520 74 0 0.0 0.0 0.00 0.00 0.00 95 1009.1
20260506112019 74 0 0.0 0.0 0.00 0.00 0.00 95 1009.1
20260506111534 74 0 0.0 0.0 0.00 0.00 0.00 95 1009.1
20260506111019 74 0 0.0 0.0 0.00 0.00 0.00 95 1009.0
20260506110520 75 0 0.0 1.0 0.00 0.00 0.00 95 1009.0
20260506110037 74 0 0.0 1.0 0.00 0.00 0.00 95 1008.9
20260506105519 74 0 0.0 0.0 0.00 0.00 0.00 95 1008.8
20260506105018 74 0 0.0 0.0 0.00 0.00 0.00 95 1008.9
20260506104533 74 0 0.0 0.0 0.00 0.00 0.00 95 1008.9
20260506104018 74 0 0.0 0.0 0.00 0.00 0.00 95 1008.9
20260506103519 74 0 0.0 1.0 0.00 0.00 0.00 95 1008.9
20260506103036 74 0 0.0 1.0 0.00 0.00 0.00 95 1008.8
20260506102520 74 0 0.0 1.0 0.00 0.00 0.00 95 1008.9
20260506102021 74 0 0.0 0.0 0.00 0.00 0.00 95 1008.9
20260506101535 74 0 0.0 0.0 0.00 0.00 0.00 95 1008.7
20260506101020 74 0 0.0 1.0 0.00 0.00 0.00 95 1008.8
20260506100518 74 0 0.0 1.0 0.00 0.00 0.00 95 1008.7
20260506100036 74 0 0.0 1.0 0.00 0.00 0.00 95 1008.7
20260506095522 75 0 0.0 1.0 0.00 0.00 0.00 95 1008.9
20260506095019 74 0 0.0 1.0 0.00 0.00 0.00 95 1008.8
20260506094536 74 0 0.0 0.0 0.00 0.00 0.00 94 1008.7
20260506094020 74 0 0.0 1.0 0.00 0.00 0.00 94 1008.6
20260506093519 75 0 0.0 1.0 0.00 0.00 0.00 94 1008.7
20260506093033 75 0 0.0 1.0 0.00 0.00 0.00 94 1008.8
20260506092519 75 0 0.0 1.0 0.00 0.00 0.00 94 1008.5
20260506092020 75 0 0.0 1.0 0.00 0.00 0.00 94 1008.7
20260506091537 75 0 0.0 0.0 0.00 0.00 0.00 94 1008.7
20260506091022 75 0 0.0 1.0 0.00 0.00 0.00 94 1008.7
20260506090518 75 0 0.0 1.0 0.00 0.00 0.00 94 1008.8
20260506090035 75 0 0.0 1.0 0.00 0.00 0.00 94 1008.8
20260506085521 75 0 0.0 1.0 0.00 0.00 0.00 94 1008.9
20260506085021 75 0 0.0 0.0 0.00 0.00 0.00 93 1008.9
20260506084531 75 0 0.0 0.0 0.00 0.00 0.00 93 1008.8
20260506084022 75 0 0.0 0.0 0.00 0.00 0.00 93 1008.8
20260506083519 76 0 0.0 0.0 0.00 0.00 0.00 93 1008.9
20260506083037 76 0 0.0 0.0 0.00 0.00 0.00 93 1009.0
20260506082519 76 0 0.0 1.0 0.00 0.00 0.00 93 1009.0
20260506082019 76 0 0.0 1.0 0.00 0.00 0.00 93 1009.1
20260506081545 76 0 0.0 1.0 0.00 0.00 0.00 93 1009.1
20260506081021 76 0 0.0 0.0 0.00 0.00 0.00 93 1009.2
20260506080519 76 0 0.0 0.0 0.00 0.00 0.00 93 1009.2
20260506073521 76 0 0.0 1.0 0.00 0.00 0.00 93 1009.4
20260506073036 76 0 0.0 1.0 0.00 0.00 0.00 93 1009.5
20260506072520 76 0 0.0 1.0 0.00 0.00 0.00 93 1009.6
20260506072024 76 0 0.0 1.0 0.00 0.00 0.00 93 1009.6
20260506071536 76 0 0.0 1.0 0.00 0.00 0.00 93 1009.5
20260506071019 76 0 0.0 0.0 0.00 0.00 0.00 93 1009.5
20260506070519 76 0 0.0 0.0 0.00 0.00 0.00 92 1009.7
20260506062018 76 0 0.0 0.0 0.00 0.00 0.00 92 1009.9
20260506061539 76 0 0.0 0.0 0.00 0.00 0.00 92 1010.0
20260506061021 76 0 0.0 0.0 0.00 0.00 0.00 92 1010.0
20260506060520 76 0 0.0 1.0 0.00 0.00 0.00 92 1010.0
20260506051020 77 0 0.0 1.0 0.00 0.00 0.00 92 1010.0
20260506050518 77 0 0.0 1.0 0.00 0.00 0.00 91 1010.0
20260506045020 77 0 0.0 1.0 0.00 0.00 0.00 91 1010.1
20260506044539 77 0 0.0 1.0 0.00 0.00 0.00 91 1010.1
20260506044025 77 0 0.0 1.0 0.00 0.00 0.00 91 1009.9
20260506043519 77 0 0.0 1.0 0.00 0.00 0.00 91 1009.8
20260506043033 77 0 0.0 1.0 0.00 0.00 0.00 91 1009.8
20260506042519 77 0 0.0 1.0 0.00 0.00 0.00 91 1009.8
20260506042019 77 0 0.0 0.0 0.00 0.00 0.00 91 1009.9
20260506041539 77 48 0.0 1.0 0.00 0.00 0.00 91 1009.8
20260506041018 77 0 0.0 1.0 0.00 0.00 0.00 91 1009.8
20260506040523 77 0 0.0 1.0 0.00 0.00 0.00 91 1009.7
20260506040032 77 160 0.0 1.0 0.00 0.00 0.00 91 1009.8
20260506035519 77 0 0.0 1.0 0.00 0.00 0.00 90 1009.7
20260506035019 77 0 0.0 1.0 0.00 0.00 0.00 90 1009.6
20260506034535 77 0 0.0 2.0 0.00 0.00 0.00 90 1009.4
20260506034020 77 0 0.0 2.0 0.00 0.00 0.00 90 1009.4
20260506033522 77 257 0.0 2.0 0.00 0.00 0.00 89 1009.4
20260506033037 78 0 0.0 2.0 0.00 0.00 0.00 89 1009.3
20260506032519 78 73 0.0 2.0 0.00 0.00 0.00 89 1009.2
20260506032019 78 0 0.0 2.0 0.00 0.00 0.00 89 1009.3
20260506031539 78 0 0.0 1.0 0.00 0.00 0.00 89 1009.3
20260506031021 78 0 0.0 1.0 0.00 0.00 0.00 89 1009.4
20260506030520 78 0 0.0 1.0 0.00 0.00 0.00 89 1009.3
20260506030035 78 0 0.0 1.0 0.00 0.00 0.00 89 1009.2
20260506025529 78 0 0.0 1.0 0.00 0.00 0.00 88 1009.1
20260506025019 78 0 0.0 2.0 0.00 0.00 0.00 88 1009.1
20260506024540 78 0 0.0 2.0 0.00 0.00 0.00 88 1009.1
20260506024021 78 0 0.0 2.0 0.00 0.00 0.00 88 1009.0
20260506023521 78 0 0.0 2.0 0.00 0.00 0.00 88 1009.0
20260506023032 78 0 0.0 2.0 0.00 0.00 0.00 88 1008.9
20260506022520 78 0 0.0 1.0 0.00 0.00 0.00 87 1008.8
20260506022019 78 0 0.0 1.0 0.00 0.00 0.00 87 1008.7
20260506021537 78 0 0.0 1.0 0.00 0.00 0.00 87 1008.6
20260506021020 78 0 0.0 1.0 0.00 0.00 0.00 87 1008.6
20260506020518 78 18 0.0 1.0 0.00 0.00 0.00 87 1008.6
20260506020039 78 0 0.0 2.0 0.00 0.00 0.00 86 1008.5
20260506015519 78 0 0.0 2.0 0.00 0.00 0.00 86 1008.5
20260506015019 79 0 0.0 1.0 0.00 0.00 0.00 86 1008.4
20260506014536 79 0 0.0 2.0 0.00 0.00 0.00 86 1008.2
20260506014018 79 0 0.0 2.0 0.00 0.00 0.00 86 1008.1
20260506013518 79 0 0.0 1.0 0.00 0.00 0.00 86 1008.0
20260506013035 79 0 0.0 1.0 0.00 0.00 0.00 86 1007.9
20260506012518 79 0 0.0 2.0 0.00 0.00 0.00 85 1007.8
20260506012021 79 0 0.0 2.0 0.00 0.00 0.00 85 1007.8
20260506011600 79 0 0.0 2.0 0.00 0.00 0.00 85 1007.7
20260506011018 79 102 0.0 1.0 0.00 0.00 0.00 85 1007.7
20260506010521 79 0 0.0 1.0 0.00 0.00 0.00 84 1007.7
20260506010033 79 111 0.0 1.0 0.00 0.00 0.00 84 1007.7
20260506005519 79 210 0.0 1.0 0.00 0.00 0.00 84 1007.7
20260506005019 79 0 0.0 2.0 0.00 0.00 0.00 83 1007.6
20260506004547 80 0 0.0 2.0 0.00 0.00 0.00 83 1007.6
20260506004018 80 277 0.0 2.0 0.00 0.00 0.00 83 1007.4
20260506003520 80 0 0.0 2.0 0.00 0.00 0.00 82 1007.4
20260506003033 80 0 0.0 2.0 0.00 0.00 0.00 82 1007.6
20260506002519 80 224 0.0 3.0 0.00 0.00 0.00 82 1007.6
20260506002019 80 120 0.0 3.0 0.00 0.00 0.00 82 1007.4
20260506001537 80 0 0.0 1.0 0.00 0.00 0.00 82 1007.5
20260506001020 80 51 0.0 1.0 0.00 0.00 0.00 82 1007.5
20260506000524 80 0 0.0 1.0 0.00 0.00 0.00 82 1007.7
20260506000109 80 0 0.0 1.0 0.00 0.00 0.00 81 1007.5
20260505235519 81 0 0.0 3.0 0.00 0.00 0.00 81 1007.4
20260505235019 81 113 0.0 3.0 0.00 0.00 0.00 81 1007.4
20260505234545 81 0 0.0 3.0 0.00 0.00 0.00 81 1007.4
20260505234020 81 0 0.0 2.0 0.00 0.00 0.00 81 1007.5
20260505233519 81 0 0.0 2.0 0.00 0.00 0.00 81 1007.5
20260505233036 81 0 0.0 2.0 0.00 0.00 0.00 81 1007.5
20260505232522 81 266 0.0 2.0 0.00 0.00 0.00 80 1007.5
20260505232020 81 0 0.0 2.0 0.00 0.00 0.00 80 1007.4
20260505231537 81 0 0.0 2.0 0.00 0.00 0.00 80 1007.6
20260505231019 82 250 0.0 1.0 0.00 0.00 0.00 80 1007.6
20260505230518 82 0 0.0 2.0 0.00 0.00 0.00 81 1007.5
20260505230052 82 0 0.0 2.0 0.00 0.00 0.00 80 1007.5
20260505225523 82 0 0.0 3.0 0.00 0.00 0.00 79 1007.4
20260505225018 82 0 0.0 3.0 0.00 0.00 0.00 79 1007.3
20260505224542 82 0 0.0 3.0 0.00 0.00 0.00 80 1007.5
20260505224019 83 0 0.0 2.0 0.00 0.00 0.00 80 1007.6
20260505223518 83 244 0.0 2.0 0.00 0.00 0.00 79 1007.5
20260505223039 83 0 0.0 2.0 0.00 0.00 0.00 78 1007.4
20260505222524 83 0 0.0 1.0 0.00 0.00 0.00 78 1007.5
20260505222019 83 265 0.0 1.0 0.00 0.00 0.00 78 1007.6
20260505221536 83 0 0.0 2.0 0.00 0.00 0.00 79 1007.5
20260505221019 83 255 0.0 2.0 0.00 0.00 0.00 78 1007.6
20260505220520 83 0 0.0 1.0 0.00 0.00 0.00 79 1007.6
20260505220039 83 0 0.0 2.0 0.00 0.00 0.00 78 1007.6
20260505215520 84 0 0.0 2.0 0.00 0.00 0.00 78 1007.7
20260505215021 84 99 0.0 1.0 0.00 0.00 0.00 78 1007.7
20260505214537 84 0 0.0 3.0 0.00 0.00 0.00 78 1007.7
20260505214023 84 0 0.0 3.0 0.00 0.00 0.00 77 1007.7
20260505213519 84 224 0.0 3.0 0.00 0.00 0.00 77 1007.8
20260505213038 84 246 0.0 5.0 0.00 0.00 0.00 77 1007.9
20260505212519 84 0 0.0 5.0 0.00 0.00 0.00 76 1008.0
20260505212019 84 64 0.0 5.0 0.00 0.00 0.00 77 1008.0
20260505211540 84 252 1.0 3.0 0.00 0.00 0.00 76 1008.0
20260505211019 84 217 0.0 4.0 0.00 0.00 0.00 77 1008.1
20260505210522 84 123 0.0 4.0 0.00 0.00 0.00 77 1008.1
20260505210035 83 231 0.0 3.0 0.00 0.00 0.00 78 1008.1
20260505205519 83 234 0.0 3.0 0.00 0.00 0.00 78 1008.3
20260505205026 83 248 0.0 6.0 0.00 0.00 0.00 79 1008.3
20260505204548 83 0 0.0 6.0 0.00 0.00 0.00 79 1008.3
20260505204023 83 293 0.0 6.0 0.00 0.00 0.00 79 1008.4
20260505203521 83 0 0.0 2.0 0.00 0.00 0.00 80 1008.6
20260505203038 83 257 0.0 1.0 0.00 0.00 0.00 80 1008.8
20260505202520 83 0 0.0 1.0 0.00 0.00 0.00 80 1008.6
20260505202019 83 226 0.0 1.0 0.00 0.00 0.00 79 1008.8
20260505201535 84 0 0.0 2.0 0.00 0.00 0.00 78 1008.9
20260505201019 84 0 0.0 2.0 0.00 0.00 0.00 78 1008.9
20260505200521 84 255 0.0 2.0 0.00 0.00 0.00 77 1008.9
20260505200034 84 276 1.0 2.0 0.00 0.00 0.00 76 1009.0
20260505195518 84 191 0.0 2.0 0.00 0.00 0.00 78 1009.1
20260505195018 83 276 0.0 2.0 0.00 0.00 0.00 79 1009.1
20260505194545 83 259 0.0 2.0 0.00 0.00 0.00 80 1009.2
20260505194022 82 0 0.0 3.0 0.00 0.00 0.00 80 1009.3
20260505193522 82 292 0.0 3.0 0.00 0.00 0.00 80 1009.3
20260505193037 82 0 0.0 1.0 0.00 0.00 0.00 81 1009.4
20260505192518 82 0 0.0 3.0 0.00 0.00 0.00 81 1009.3
20260505192021 82 0 0.0 3.0 0.00 0.00 0.00 80 1009.5
20260505191552 82 241 0.0 3.0 0.00 0.00 0.00 80 1009.4
20260505191021 82 0 0.0 3.0 0.00 0.00 0.00 81 1009.4
20260505190522 81 237 0.0 2.0 0.00 0.00 0.00 82 1009.4
20260505190040 81 0 0.0 3.0 0.00 0.00 0.00 83 1009.5
20260505185519 80 238 0.0 3.0 0.00 0.00 0.00 83 1009.6
20260505185023 80 252 0.0 3.0 0.00 0.00 0.00 83 1009.6
20260505184538 81 252 0.0 3.0 0.00 0.00 0.00 82 1009.6
20260505184019 81 251 0.0 3.0 0.00 0.00 0.00 82 1009.7
20260505183518 81 223 0.0 1.0 0.00 0.00 0.00 83 1009.6
20260505183035 81 0 0.0 2.0 0.00 0.00 0.00 84 1009.7
20260505182518 80 0 0.0 2.0 0.00 0.00 0.00 84 1009.8
20260505182018 79 0 0.0 1.0 0.00 0.00 0.00 85 1009.8